Gary, IN

12:08 PM CDT on October 21, 2017 (GMT -0500)
Gary / Chicago

Weather History for KGYY - July, 2013

Change the Weather History Date:

Thursday, July 25, 2013

  Actual Average Record
Temperature  
Mean Temperature 64 °F -  
Max Temperature 79 °F 84 °F 98 °F (2012)
Min Temperature 51 °F 63 °F 51 °F (2013)
Growing Degree Days 14 (Base 50)    
Moisture  
Dew Point 53 °F    
Average Humidity 68    
Maximum Humidity 94    
Minimum Humidity 29    
Precipitation  
Precipitation 0.00 in - - ()
Sea Level Pressure  
Sea Level Pressure 30.08 in    
Wind  
Wind Speed 1 mph (East)    
Max Wind Speed 10 mph    
Max Gust Speed -    
Visibility 12 miles    
Events      
Averages and records for this station are not official NWS values.
T = Trace of Precipitation, MM = Missing Value Source: NWS Daily Summary

Daily Weather History Graph

Daily Weather History Graph

Search for Another Location

Airport or City:

Trip Planner

Search our weather history database for the weather conditions in past years. The results will help you decide how hot, cold, wet, or windy it might be!

Date:

Astronomy

Jul. 25, 2013 Rise Set
Actual Time 5:37 AM CDT 8:14 PM CDT
Civil Twilight 5:05 AM CDT 8:46 PM CDT
Nautical Twilight 4:25 AM CDT 9:25 PM CDT
Astronomical Twilight 3:40 AM CDT 10:11 PM CDT
Moon 9:50 PM CDT (7/25) 9:10 AM CDT (7/25)
Length of Visible Light 15h 40m
Length of Day
14h 36m
Waning Gibbous, 88% of the Moon is Illuminated
Jul 25
Waning Gibbous
Jul 29
Last Quarter
Aug 6
New
Aug 14
First Quarter
Aug 20
Full

Hourly Weather History & Observations

Time (CDT) Temp. Dew Point Humidity Pressure Visibility Wind Dir Wind Speed Gust Speed Precip Events Conditions
12:15 AM 57.4 °F 54.1 °F 89% 30.07 in 10.0 mi Calm Calm - N/A   Clear
12:35 AM 56.8 °F 53.4 °F 88% 30.06 in 10.0 mi Calm Calm - N/A   Clear
12:55 AM 56.7 °F 54.1 °F 91% 30.07 in 10.0 mi Calm Calm - N/A   Clear
1:15 AM 55.4 °F 52.5 °F 90% 30.07 in 10.0 mi Calm Calm - N/A   Clear
1:35 AM 55.2 °F 52.3 °F 90% 30.06 in 10.0 mi Calm Calm - N/A   Clear
1:55 AM 54.9 °F 52.3 °F 91% 30.06 in 10.0 mi Calm Calm - N/A   Clear
2:15 AM 54.5 °F 52.0 °F 91% 30.06 in 10.0 mi Calm Calm - N/A   Clear
2:35 AM 54.5 °F 52.0 °F 91% 30.06 in 10.0 mi Calm Calm - N/A   Clear
2:55 AM 54.0 °F 51.6 °F 92% 30.06 in 10.0 mi Calm Calm - N/A   Clear
3:15 AM 53.6 °F 51.3 °F 92% 30.06 in 10.0 mi Calm Calm - N/A   Clear
3:55 AM 53.4 °F 51.1 °F 92% 30.07 in 10.0 mi Calm Calm - N/A   Clear
4:15 AM 53.6 °F 51.4 °F 92% 30.07 in 10.0 mi Calm Calm - N/A   Clear
4:35 AM 53.2 °F 51.3 °F 93% 30.08 in 4.0 mi Calm Calm - N/A   Clear
4:45 AM 53.6 °F 51.8 °F 94% 30.08 in 10.0 mi Calm Calm - N/A   Partly Cloudy
5:45 AM 51.8 °F 50.0 °F 94% 30.09 in 10.0 mi Calm Calm - N/A   Partly Cloudy
6:45 AM 57.2 °F 55.4 °F 94% 30.10 in 10.0 mi Calm Calm - N/A   Partly Cloudy
7:45 AM 64.4 °F 53.6 °F 68% 30.11 in 10.0 mi Calm Calm - N/A   Partly Cloudy
8:45 AM 68.0 °F 51.8 °F 56% 30.12 in 12.0 mi Calm Calm - N/A   Scattered Clouds
9:45 AM 69.8 °F 53.6 °F 56% 30.12 in 15.0 mi Calm Calm - N/A   Partly Cloudy
10:45 AM 71.6 °F 53.6 °F 53% 30.12 in 15.0 mi Calm Calm - N/A   Partly Cloudy
11:45 AM 73.4 °F 51.8 °F 47% 30.12 in 20.0 mi Calm Calm - N/A   Partly Cloudy
12:45 PM 75.2 °F 53.6 °F 47% 30.12 in 20.0 mi North 5.8 mph - N/A   Partly Cloudy
1:45 PM 77.0 °F 42.8 °F 29% 30.11 in 20.0 mi Calm Calm - N/A   Partly Cloudy
2:45 PM 78.8 °F 48.2 °F 34% 30.10 in 20.0 mi NNE 8.1 mph - N/A   Partly Cloudy
3:45 PM 78.8 °F 48.2 °F 34% 30.08 in 15.0 mi NNE 10.4 mph - N/A   Partly Cloudy
5:45 PM 78.8 °F 51.8 °F 39% 30.06 in 15.0 mi NNE 8.1 mph - N/A   Scattered Clouds
6:45 PM 75.2 °F 55.4 °F 50% 30.06 in 15.0 mi NNE 5.8 mph - N/A   Mostly Cloudy
7:45 PM 75.2 °F 53.6 °F 47% 30.06 in 15.0 mi Variable 5.8 mph - N/A   Mostly Cloudy
8:45 PM 75.2 °F 53.6 °F 47% 30.06 in 15.0 mi Variable 3.5 mph - N/A   Mostly Cloudy
9:15 PM 74.3 °F 53.8 °F 49% 30.07 in 10.0 mi SSE 3.5 mph - N/A   Mostly Cloudy
9:35 PM 73.4 °F 54.1 °F 51% 30.07 in 10.0 mi South 3.5 mph - N/A   Scattered Clouds
9:45 PM 73.4 °F 55.4 °F 53% 30.08 in 15.0 mi Variable 5.8 mph - N/A   Scattered Clouds
9:55 PM 72.1 °F 55.8 °F 56% 30.08 in 10.0 mi Calm Calm - N/A   Clear
10:15 PM 71.2 °F 55.9 °F 58% 30.08 in 10.0 mi Calm Calm - N/A   Clear
10:35 PM 70.7 °F 55.4 °F 58% 30.08 in 10.0 mi SSW 3.5 mph - N/A   Clear
10:55 PM 71.1 °F 55.2 °F 57% 30.07 in 10.0 mi Calm Calm - N/A   Clear
11:15 PM 69.3 °F 56.3 °F 63% 30.07 in 10.0 mi South 3.5 mph - N/A   Clear
11:35 PM 69.4 °F 55.4 °F 61% 30.07 in 10.0 mi Calm Calm - N/A   Clear
11:55 PM 68.9 °F 55.4 °F 62% 30.07 in 10.0 mi South 3.5 mph - N/A   Clear